Montgomery, NY

10:40 PM EDT on June 28, 2017 (GMT -0400)
Orange County

Weather History for KMGJ - October, 2012

Change the Weather History Date:

Thursday, October 11, 2012

  Actual Average (KSWF) Record (KSWF)
Temperature  
Mean Temperature 48 °F -  
Max Temperature 57 °F 61 °F 84 °F (2011)
Min Temperature 39 °F 41 °F 22 °F (1986)
Degree Days  
Heating Degree Days 17    
Moisture  
Dew Point 34 °F    
Average Humidity 62    
Maximum Humidity 89    
Minimum Humidity 37    
Precipitation  
Precipitation 0.04 in - - ()
Sea Level Pressure  
Sea Level Pressure 30.11 in    
Wind  
Wind Speed 7 mph (West)    
Max Wind Speed 13 mph    
Max Gust Speed 24 mph    
Visibility 10 miles    
Events      
Averages and records for this station are not official NWS values.
T = Trace of Precipitation, MM = Missing Value Source: NWS Daily Summary

Daily Weather History Graph

Daily Weather History Graph

Search for Another Location

Airport or City:

Trip Planner

Search our weather history database for the weather conditions in past years. The results will help you decide how hot, cold, wet, or windy it might be!

Date:

Astronomy

Oct. 11, 2012 Rise Set
Actual Time 7:05 AM EDT 6:21 PM EDT
Civil Twilight 6:37 AM EDT 6:49 PM EDT
Nautical Twilight 6:05 AM EDT 7:21 PM EDT
Astronomical Twilight 5:33 AM EDT 7:53 PM EDT
Moon 2:37 AM EDT (10/11) 3:59 PM EDT (10/11)
Length of Visible Light 12h 12m
Length of Day
11h 16m
Waning Crescent, 18% of the Moon is Illuminated
Oct 11
Waning Crescent
Oct 15
New
Oct 21
First Quarter
Oct 29
Full
Nov 6
Last Quarter

Hourly Weather History & Observations

Time (EDT) Temp. Windchill Dew Point Humidity Pressure Visibility Wind Dir Wind Speed Gust Speed Precip Events Conditions
12:54 AM 48.0 °F - 37.9 °F 68% 29.96 in 10.0 mi West 9.2 mph - N/A   Clear
1:54 AM 48.0 °F - 37.0 °F 66% 29.98 in 10.0 mi WNW 10.4 mph 16.1 mph N/A   Clear
2:54 AM 46.9 °F - 36.0 °F 66% 29.99 in 10.0 mi West 4.6 mph - N/A   Clear
3:54 AM 45.0 °F 41.2 °F 35.1 °F 68% 30.01 in 10.0 mi WSW 6.9 mph - N/A   Clear
4:54 AM 45.0 °F 41.8 °F 35.1 °F 68% 30.05 in 10.0 mi West 5.8 mph - N/A   Clear
5:54 AM 42.1 °F 39.2 °F 34.0 °F 73% 30.09 in 10.0 mi SW 4.6 mph - N/A   Clear
6:54 AM 39.9 °F 35.8 °F 34.0 °F 79% 30.13 in 10.0 mi West 5.8 mph - N/A   Clear
7:54 AM 43.0 °F 40.3 °F 34.0 °F 71% 30.14 in 10.0 mi Variable 4.6 mph - N/A   Clear
8:54 AM 46.9 °F - 34.0 °F 61% 30.17 in 10.0 mi Variable 6.9 mph - N/A   Clear
9:54 AM 48.9 °F - 34.0 °F 56% 30.19 in 10.0 mi NNW 12.7 mph - N/A   Partly Cloudy
10:54 AM 51.1 °F - 33.1 °F 50% 30.19 in 10.0 mi WNW 10.4 mph 24.2 mph N/A   Partly Cloudy
11:54 AM 54.0 °F - 30.9 °F 41% 30.18 in 10.0 mi WNW 10.4 mph 18.4 mph N/A   Clear
12:54 PM 55.0 °F - 32.0 °F 42% 30.17 in 10.0 mi NW 9.2 mph - N/A   Clear
1:54 PM 55.9 °F - 30.9 °F 39% 30.13 in 10.0 mi West 9.2 mph - N/A   Clear
2:54 PM 57.0 °F - 30.9 °F 37% 30.13 in 10.0 mi West 5.8 mph 16.1 mph 0.04 in   Clear
3:54 PM 57.9 °F - 32.0 °F 37% 30.13 in 10.0 mi SW 5.8 mph - N/A   Clear
4:54 PM 57.0 °F - 30.9 °F 37% 30.12 in 10.0 mi West 4.6 mph - N/A   Clear
5:54 PM 54.0 °F - 33.1 °F 45% 30.12 in 10.0 mi SSW 5.8 mph - N/A   Clear
6:54 PM 46.0 °F - 37.9 °F 73% 30.12 in 10.0 mi Calm Calm - N/A   Clear
7:54 PM 43.0 °F - 37.0 °F 80% 30.13 in 10.0 mi Calm Calm - N/A   Clear
8:54 PM 42.1 °F 38.4 °F 37.0 °F 82% 30.14 in 10.0 mi SSW 5.8 mph - N/A   Clear
9:54 PM 42.1 °F 38.4 °F 36.0 °F 79% 30.14 in 10.0 mi WSW 5.8 mph - N/A   Clear
10:54 PM 42.1 °F - 36.0 °F 79% 30.14 in 10.0 mi Calm Calm - N/A   Clear
11:54 PM 39.0 °F - 36.0 °F 89% 30.13 in 10.0 mi Calm Calm - N/A   Clear